Location: Castillon
(43.0896°N, 0.2156°E)
Time: 20:04:29
(UTC+00:00)

Cosmos 1850 Rocket - Pass Details

Date: 16 June 2021
Orbit: 755 x 785 km, 74.0° (Epoch: 31 July)

Event Time Altitude Azimuth Distance (km) Brightness Sun altitude
Rises 21:04:30 0° 342° (NNW) 3,273 8.7 -12.2°
Reaches altitude 10° 21:06:56 10° 345° (NNW) 2,338 7.6 -12.5°
Maximum altitude 21:12:13 67° 68° (ENE) 840 4.1 -13.1°
Enters shadow 21:15:53 20° 147° (SSE) 1,729 5.2 -13.6°
